Regional Weather Roundup
Issued by NWS

Home | Current Version | Previous Version | Graphics & Text | Print | Product List | Glossary On
Versions: 1 2 3 4 5 6 7 8 9 10 11 12 13 14 15 16 17 18 19 20 21 22 23 24 25 26 27
000
ASUS45 KCYS 242210
RWRWY

WYOMING REGIONAL WEATHER ROUNDUP
NATIONAL WEATHER SERVICE CHEYENNE WY
400 PM MDT MON JUL 24 2017

NOTE:  "FAIR" INDICATES FEW OR NO CLOUDS BELOW 12,000 FEET
WITH NO SIGNIFICANT WEATHER AND/OR OBSTRUCTIONS TO VISIBILITY.

WYZ001-242300-
YELLOWSTONE NATIONAL PARK

CITY           SKY/WX    TMP DP  RH WIND       PRES   REMARKS
LK YELLOWSTONE   N/A     79  31  17 VRB5G17   30.24F
W YELLOWSTONE  NOT AVBL

$$
WYZ002>013-054>058-071-098>099-242300-
NORTHERN WYOMING

CITY           SKY/WX    TMP DP  RH WIND       PRES   REMARKS
JACKSON        NOT AVBL
CODY           FAIR      92  38  15 VRB7      29.96F
GREYBULL       FAIR      99  32   9 E5        29.85F HX  93
WORLAND        FAIR      96  33  11 CALM      29.86F HX  91
SHERIDAN       FAIR      92  41  17 VRB5      29.90F
BUFFALO        FAIR      93  38  14 N12G22    29.98F
GILLETTE       FAIR      97  35  11 SW8       29.90F HX  92
HULETT         FAIR      95  36  12 NW3       29.92S HX  90
NEWCASTLE      FAIR      97  30   9 N12G24    29.90F HX  91

$$
WYZ014>020-022>026-101>103-242300-
CENTRAL WYOMING

CITY           SKY/WX    TMP DP  RH WIND       PRES   REMARKS
BIG PINEY      PTSUNNY   81  35  19 NW7       30.20F
PINEDALE       FAIR      79  32  18 E8        30.21F
DUBOIS         FAIR      82  18   9 N10G26    30.16S
LANDER         FAIR      93  34  12 MISG      30.01F
RIVERTON       FAIR      93  28  10 S15       29.99F
CASPER         FAIR      94  27   9 SW14      29.99F
DOUGLAS        FAIR      98  26   7 W15       29.97F HX  91

$$
WYZ021-027>030-104>119-242300-
SOUTHERN WYOMING

CITY           SKY/WX    TMP DP  RH WIND       PRES   REMARKS
EVANSTON       FAIR      85  36  17 CALM      30.18F
KEMMERER         N/A    N/A N/A N/A W6        30.20F
FORT BRIDGER   MOCLDY    83  36  18 CALM      30.20F
ROCK SPRINGS   FAIR      87  33  14 S14G25    30.16F
RAWLINS        FAIR      88  33  14 W10G24    30.16F
SARATOGA       FAIR      88  32  13 N5        30.19S
LARAMIE        FAIR      76  44  32 E12       30.21R
CHEYENNE       FAIR      91  33  12 NE7       30.09S
TORRINGTON     FAIR      99  27   8 SW8       29.89F HX  92
PINE BLUFFS    FAIR      91  32  12 N8G16     30.01F

$$




USA.gov is the U.S. government's official web portal to all federal, state and local government web resources and services.